EN

Hourly Weather Barro

Today, 8 March, Monday

Time Temperature Precipitation Wind Pressure Humidity
00:00 +25°C° 0 mm 1 mps 734 mmHg 76%
01:00 +24°C° 0 mm 1 mps 734 mmHg 80%
02:00 +22°C° 0 mm 0 mps 734 mmHg 85%
03:00 +21°C° 0 mm 0 mps 734 mmHg 90%
04:00 +21°C° 0 mm 0 mps 734 mmHg 91%
05:00 +21°C° 0 mm 0 mps 734 mmHg 92%
06:00 +21°C° 0 mm 0 mps 735 mmHg 94%
07:00 +23°C° 0 mm 0 mps 735 mmHg 83%
08:00 +28°C° 0 mm 1 mps 736 mmHg 72%
09:00 +30°C° 0 mm 1 mps 736 mmHg 62%
10:00 +32°C° 0 mm 2 mps 736 mmHg 54%
11:00 +35°C° 0 mm 2 mps 735 mmHg 47%
12:00 +36°C° 0 mm 2 mps 735 mmHg 39%
13:00 +37°C° 0 mm 2 mps 734 mmHg 37%
14:00 +37°C° 0 mm 2 mps 733 mmHg 34%
15:00 +37°C° 0 mm 2 mps 733 mmHg 32%
16:00 +35°C° 0 mm 2 mps 732 mmHg 38%
17:00 +32°C° 0 mm 1 mps 732 mmHg 44%
18:00 +29°C° 0 mm 1 mps 732 mmHg 50%
19:00 +28°C° 0 mm 1 mps 732 mmHg 52%
20:00 +28°C° 0 mm 1 mps 733 mmHg 53%
21:00 +27°C° 0 mm 1 mps 734 mmHg 55%
22:00 +26°C° 0 mm 1 mps 734 mmHg 64%
23:00 +25°C° 0 mm 1 mps 734 mmHg 74%

Tomorrow, 9 March, Tuesday

Time Temperature Precipitation Wind Pressure Humidity
00:00 +24°C° 0 mm 1 mps 734 mmHg 83%
01:00 +24°C° 0 mm 1 mps 734 mmHg 87%
02:00 +22°C° 0 mm 0 mps 734 mmHg 90%
03:00 +21°C° 0 mm 0 mps 733 mmHg 93%
04:00 +21°C° 0 mm 0 mps 734 mmHg 94%
05:00 +21°C° 0 mm 0 mps 734 mmHg 95%
06:00 +21°C° 0 mm 0 mps 734 mmHg 96%
07:00 +25°C° 0 mm 1 mps 735 mmHg 84%
08:00 +28°C° 0 mm 1 mps 735 mmHg 73%
09:00 +30°C° 0 mm 2 mps 736 mmHg 62%
10:00 +32°C° 0 mm 2 mps 735 mmHg 54%
11:00 +35°C° 0 mm 2 mps 734 mmHg 46%
12:00 +36°C° 0 mm 2 mps 734 mmHg 38%
13:00 +37°C° 0 mm 2 mps 733 mmHg 36%
14:00 +37°C° 0 mm 2 mps 732 mmHg 33%
15:00 +37°C° 0 mm 2 mps 731 mmHg 31%
16:00 +35°C° 0 mm 2 mps 731 mmHg 37%
17:00 +32°C° 0 mm 1 mps 731 mmHg 42%
18:00 +29°C° 0 mm 1 mps 731 mmHg 48%
19:00 +28°C° 0 mm 1 mps 732 mmHg 51%
20:00 +28°C° 0 mm 2 mps 732 mmHg 54%
21:00 +27°C° 0 mm 2 mps 733 mmHg 58%
22:00 +26°C° 0 mm 2 mps 733 mmHg 66%
23:00 +25°C° 0 mm 1 mps 733 mmHg 75%

Day after tomorrow, 10 March, Wednesday

Time Temperature Precipitation Wind Pressure Humidity
00:00 +25°C° 0 mm 1 mps 733 mmHg 84%
01:00 +24°C° 0 mm 1 mps 733 mmHg 87%
02:00 +22°C° 0 mm 0 mps 734 mmHg 90%
03:00 +21°C° 0 mm 0 mps 734 mmHg 92%
04:00 +21°C° 0 mm 0 mps 734 mmHg 93%
05:00 +21°C° 0 mm 0 mps 734 mmHg 94%
06:00 +21°C° 0 mm 0 mps 734 mmHg 95%
07:00 +25°C° 0 mm 1 mps 734 mmHg 82%
08:00 +28°C° 0 mm 1 mps 735 mmHg 70%
09:00 +30°C° 0 mm 2 mps 736 mmHg 58%
10:00 +32°C° 0 mm 2 mps 735 mmHg 51%
11:00 +35°C° 0 mm 2 mps 735 mmHg 44%
12:00 +37°C° 0 mm 2 mps 734 mmHg 36%
13:00 +37°C° 0 mm 2 mps 733 mmHg 35%
14:00 +37°C° 0 mm 2 mps 732 mmHg 33%
15:00 +38°C° 0 mm 2 mps 731 mmHg 31%
16:00 +36°C° 0 mm 2 mps 731 mmHg 38%
17:00 +32°C° 0 mm 1 mps 731 mmHg 44%
18:00 +30°C° 0 mm 1 mps 731 mmHg 50%
19:00 +29°C° 0 mm 1 mps 732 mmHg 56%
20:00 +28°C° 0 mm 2 mps 733 mmHg 61%
21:00 +27°C° 0 mm 2 mps 733 mmHg 66%
22:00 +26°C° 0 mm 2 mps 733 mmHg 72%
23:00 +25°C° 0 mm 1 mps 734 mmHg 78%

11 March, Thursday

Time Temperature Precipitation Wind Pressure Humidity
00:00 +22°C° 0 mm 0 mps 734 mmHg 84%
01:00 +22°C° 0 mm 0 mps 734 mmHg 86%
02:00 +22°C° 0 mm 0 mps 734 mmHg 88%
03:00 +21°C° 0 mm 0 mps 734 mmHg 90%
04:00 +21°C° 0 mm 0 mps 734 mmHg 91%
05:00 +21°C° 0 mm 0 mps 734 mmHg 92%
06:00 +21°C° 0 mm 0 mps 735 mmHg 94%
07:00 +25°C° 0 mm 1 mps 735 mmHg 82%
08:00 +28°C° 0 mm 1 mps 736 mmHg 70%
09:00 +30°C° 0 mm 2 mps 736 mmHg 59%
10:00 +32°C° 0 mm 2 mps 736 mmHg 52%
11:00 +35°C° 0 mm 2 mps 735 mmHg 45%
12:00 +37°C° 0 mm 3 mps 734 mmHg 38%
13:00 +37°C° 0 mm 3 mps 734 mmHg 37%
14:00 +37°C° 0 mm 3 mps 733 mmHg 36%
15:00 +37°C° 0 mm 2 mps 732 mmHg 36%
16:00 +35°C° 0 mm 2 mps 732 mmHg 41%
17:00 +32°C° 0 mm 1 mps 732 mmHg 46%
18:00 +30°C° 0 mm 1 mps 732 mmHg 50%
19:00 +29°C° 0 mm 1 mps 732 mmHg 56%
20:00 +28°C° 0 mm 1 mps 733 mmHg 61%
21:00 +27°C° 0 mm 2 mps 734 mmHg 66%
22:00 +26°C° 0.1 mm 1 mps 734 mmHg 73%
23:00 +25°C° 0.1 mm 1 mps 734 mmHg 79%

12 March, Friday

Time Temperature Precipitation Wind Pressure Humidity
00:00 +25°C° 0.1 mm 1 mps 734 mmHg 85%
01:00 +24°C° 0.2 mm 1 mps 734 mmHg 87%
02:00 +24°C° 0.2 mm 1 mps 734 mmHg 90%
03:00 +23°C° 0.2 mm 1 mps 734 mmHg 93%
04:00 +21°C° 0 mm 0 mps 734 mmHg 93%
05:00 +21°C° 0 mm 0 mps 734 mmHg 94%
06:00 +21°C° 0 mm 0 mps 734 mmHg 95%
07:00 +25°C° 0 mm 1 mps 735 mmHg 82%
08:00 +28°C° 0 mm 1 mps 735 mmHg 69%
09:00 +30°C° 0 mm 2 mps 736 mmHg 56%
10:00 +32°C° 0 mm 2 mps 735 mmHg 50%
11:00 +35°C° 0 mm 2 mps 735 mmHg 43%
12:00 +36°C° 0 mm 2 mps 735 mmHg 36%
13:00 +36°C° 0 mm 2 mps 734 mmHg 38%
14:00 +35°C° 0 mm 2 mps 733 mmHg 41%
15:00 +35°C° 0 mm 2 mps 732 mmHg 43%
16:00 +32°C° 0 mm 2 mps 732 mmHg 47%
17:00 +31°C° 0 mm 2 mps 732 mmHg 52%
18:00 +29°C° 0 mm 1 mps 732 mmHg 57%
19:00 +28°C° 0 mm 1 mps 733 mmHg 60%
20:00 +27°C° 0 mm 1 mps 733 mmHg 62%
21:00 +26°C° 0 mm 1 mps 734 mmHg 65%
22:00 +26°C° 0.1 mm 1 mps 734 mmHg 72%
23:00 +25°C° 0.1 mm 1 mps 734 mmHg 78%

13 March, Saturday

Time Temperature Precipitation Wind Pressure Humidity
00:00 +24°C° 0.1 mm 1 mps 734 mmHg 85%
01:00 +24°C° 0.4 mm 1 mps 734 mmHg 88%
02:00 +24°C° 0.4 mm 1 mps 734 mmHg 91%
03:00 +23°C° 0.4 mm 1 mps 734 mmHg 94%
04:00 +23°C° 0 mm 1 mps 734 mmHg 95%
05:00 +23°C° 0 mm 1 mps 735 mmHg 95%
06:00 +23°C° 0 mm 1 mps 735 mmHg 95%
07:00 +25°C° 0 mm 1 mps 735 mmHg 84%
08:00 +27°C° 0 mm 2 mps 735 mmHg 72%
09:00 +29°C° 0 mm 2 mps 736 mmHg 61%
10:00 +31°C° 0 mm 2 mps 735 mmHg 54%
11:00 +34°C° 0 mm 2 mps 735 mmHg 46%
12:00 +36°C° 0 mm 2 mps 735 mmHg 39%
13:00 +36°C° 0 mm 2 mps 734 mmHg 39%
14:00 +36°C° 0 mm 2 mps 733 mmHg 40%
15:00 +35°C° 0 mm 2 mps 732 mmHg 40%
16:00 +33°C° 0 mm 1 mps 732 mmHg 45%
17:00 +31°C° 0 mm 1 mps 732 mmHg 51%
18:00 +29°C° 0 mm 1 mps 732 mmHg 56%
19:00 +28°C° 0 mm 1 mps 733 mmHg 60%
20:00 +27°C° 0 mm 1 mps 733 mmHg 65%
21:00 +27°C° 0 mm 1 mps 734 mmHg 69%
22:00 +26°C° 0.4 mm 1 mps 734 mmHg 77%
23:00 +25°C° 0.4 mm 1 mps 734 mmHg 84%
Show more

We Need Your Consent

Meteoprog and our Service Providers may store and access personal data such as cookies, device identifiers or other similar technologies on your device and process such data to personalise content and ads, as well as provide social media features and to analyse the traffic.

  • Store and/or access information on your device

    Cookies, device identifiers or other information can be stored or accessed on your device for the purposes indicated above.

  • Personalised ads and content, ad and content measurement, audience insights, and products development

    Ads and content can be personalised based on a profile. More data can be added to better personalise ads and content. Ad and content performance can be measured. Insights about the audience who saw the ads and content can be derived. Such data can be used to develop or improve user’s experience, systems and software.

By clicking ‘I Agree’ you will allow the use of indicated cookies, device identifiers, web beacons or other similar technologies. Your settings can be changed in the browser on your device.

For certain purposes, legitimate interests may be relied on, rather than consent. You can read more about this in our Privacy and Cookie Policy.